Location: Downe
(51.3167°N, 0.0500°E)
Time: 23:24:17
(UTC+00:00)

SL-16 R/B - Pass Details

Date: 17 November 2019
Orbit: 842 x 846 km, 71.0° (Epoch: 09 December)

Event Time Altitude Azimuth Distance (km) Brightness Sun altitude
Exits shadow 04:52:25 32° 328° (NNW) 1,432 3.1 -22.7°
Maximum altitude 04:55:13 86° 243° (WSW) 856 2.1 -22.3°
Drops below altitude 10° 05:00:53 10° 154° (SSE) 2,464 5.0 -21.4°
Sets 05:03:19 0° 154° (SSE) 3,394 5.8 -21.0°
